Regional Weather Roundup
Issued by NWS

Home | Current Version | Previous Version | Graphics & Text | Print | Product List | Glossary On
Versions: 1 2 3 4 5 6 7 8 9 10 11 12 13 14 15 16 17 18 19 20 21 22 23 24 25 26 27 28 29 30 31 32 33 34 35 36 37 38 39 40 41 42 43 44 45 46 47 48 49 50
056
ASUS43 KOAX 240502
RWRNE

WEATHER ROUNDUP FOR NEBRASKA
NATIONAL WEATHER SERVICE OMAHA NE
1200 AM CDT FRI MAR 24 2017

NOTES: SATELLITE DATA IS BEING USED TO AUGMENT CLOUD COVER ABOVE
       12000 FEET.
       "FAIR" INDICATES FEW OR NO CLOUDS BELOW 12,000 FEET WITH NO
       SIGNIFICANT WEATHER AND/OR OBSTRUCTIONS TO VISIBILITY.

  * THESE STATIONS DO NOT REPORT WEATHER SUCH AS RAIN...SNOW OR FOG.

NEZ001>004-019>022-054>056-240600-
NEBRASKA PANHANDLE

CITY           SKY/WX    TMP DP  RH WIND       PRES   REMARKS
SCOTTSBLUFF    LGT RAIN  44  40  85 N21G28    29.88R
ALLIANCE       LGT RAIN  42  41  96 N25G31    29.80S
CHADRON        CLOUDY    43  38  82 N21       29.87R
KIMBALL        LGT RAIN  43  43 100 N26G32    29.78F
SIDNEY         CLOUDY    46  42  86 N24G35    29.77R
$$

NEZ057>060-069>072-079>082-240600-
SOUTHWEST NEBRASKA

CITY           SKY/WX    TMP DP  RH WIND       PRES   REMARKS
NORTH PLATTE   CLOUDY    55  50  83 NE30G43   29.66F
IMPERIAL       MOCLDY    55  48  77 N33G44    29.63R
LEXINGTON      LGT RAIN  61  51  67 N18G33    29.69R
MCCOOK         CLOUDY    63  47  55 S24G32    29.53R
OGALLALA       RAIN      52  44  75 N17G25    29.78R
$$

NEZ005>010-023>029-035>040-094-240600-
NORTH CENTRAL NEBRASKA

CITY           SKY/WX    TMP DP  RH WIND       PRES   REMARKS
VALENTINE      CLOUDY    48  37  65 N13       29.79R
AINSWORTH      LGT RAIN  50  50  99 NE8       29.80R
BROKEN BOW     HVY RAIN  54  31  41 N16       29.76R
O`NEILL        HVY RAIN  53  53 100 N10       29.75R
ORD            LGT RAIN  54  51  90 N22       29.71R
THEDFORD       LGT RAIN  51  48  88 SE5       29.79R
$$

NEZ041-046>049-061>064-073>077-083>087-240600-
SOUTH CENTRAL NEBRASKA

CITY           SKY/WX    TMP DP  RH WIND       PRES   REMARKS
GRAND ISLAND   CLOUDY    60  52  74 S10       29.64R
AURORA         CLOUDY    60  54  80 S12       29.65F
HASTINGS       MOCLDY    60  52  74 S14       29.67F
HEBRON         CLOUDY    70  49  48 S13       29.68R
HOLDREGE       CLOUDY    61  51  69 SW29G39   29.65R
KEARNEY *      CLOUDY    59  48  67 SE9       29.68R
YORK           LGT RAIN  63  55  77 SW15      29.70R
$$

NEZ011>018-030>034-042>045-240600-
NORTHEAST NEBRASKA

CITY           SKY/WX    TMP DP  RH WIND       PRES   REMARKS
NORFOLK        CLOUDY    56  51  84 W9        29.73R
ALBION         RAIN      58  54  84 N17       29.68F
BLAIR          CLOUDY    70  50  49 S25G35    29.68R
FREMONT        MOCLDY    69  49  49 S10G17    29.69R
TEKAMAH        CLOUDY    61  49  64 S8        29.68R
WAYNE          LGT RAIN  53  51  92 N7        29.71F
$$

NEZ050>053-065>068-078-088>093-240600-
SOUTHEAST NEBRASKA

CITY           SKY/WX    TMP DP  RH WIND       PRES   REMARKS
LINCOLN        MOCLDY    70  50  49 S24G35    29.66R
OMAHA EPPLEY   CLOUDY    70  49  47 S26G37    29.63R
BEATRICE       MOCLDY    69  51  52 S16G24    29.70F
FALLS CITY     MOCLDY    69  47  45 S9        29.74R
NEBRASKA CITY  MOCLDY    67  42  39 S16       29.74R
PLATTSMOUTH    CLOUDY    69  44  40 S23G31    29.69S
$$

NEZ044-045-051>053-067-240600-
OMAHA AREA

CITY           SKY/WX    TMP DP  RH WIND       PRES   REMARKS
OMAHA EPPLEY   CLOUDY    70  49  47 S26G37    29.63R
BLAIR          CLOUDY    70  50  49 S25G35    29.68R
FREMONT        MOCLDY    69  49  49 S10G17    29.69R
MILLARD        CLOUDY    73  52  48 S23G35    29.65R
OFFUTT AFB     CLOUDY    70  49  47 S21G32    29.66S
PLATTSMOUTH    CLOUDY    69  44  40 S23G31    29.69S
WAHOO          FAIR      69  48  47 SW7       29.67R
$$




USA.gov is the U.S. government's official web portal to all federal, state and local government web resources and services.